Theta_e
318 318 317 317 316 315 314 314 315 316 318 320 321 321 321 321 320 321 328 331 335 339 337 346 353 349 345 346 349 348 357 359 354 350 350 347 345 346 348 347 348 347 351 350 348
317 317 318 318 318 318 317 316 315 315 315 316 317 318 319 320 320 322 327 328 328 339 337 348 345 340 341 345 345 350 356 349 350 349 350 348 347 345 347 350 350 350 351 348 347
316 316 317 318 318 318 319 318 318 317 316 315 315 316 318 318 321 326 328 326 332 340 337 343 342 337 341 344 344 347 350 348 347 345 344 348 347 349 348 350 351 350 349 348 347
317 317 317 317 317 318 319 319 319 319 318 317 316 316 317 317 331 328 327 327 335 339 337 341 341 339 343 347 346 350 349 347 346 346 347 349 347 345 347 347 351 350 349 348 347
318 318 317 317 317 317 318 319 319 319 319 318 317 316 317 326 326 326 324 326 338 338 338 342 339 340 342 346 345 344 348 347 346 345 346 346 346 348 347 344 350 349 349 348 347
318 318 318 317 317 317 317 318 319 319 320 319 318 317 319 326 326 326 326 330 338 336 339 341 339 338 340 342 346 344 345 345 346 346 346 348 347 348 346 346 348 348 349 348 347
319 319 318 318 318 317 317 318 318 319 320 320 319 318 322 325 325 325 327 329 335 339 340 339 339 336 338 344 345 345 348 347 346 345 347 348 352 352 346 345 347 347 347 347 346
320 319 319 319 318 318 317 317 319 319 320 320 319 318 325 325 324 324 326 329 332 338 339 338 335 335 337 343 344 347 347 353 346 344 345 349 355 349 347 345 346 346 346 346 346
321 320 320 319 319 318 317 317 319 320 320 320 319 325 326 324 323 323 325 328 331 334 336 336 335 337 339 344 349 348 352 350 348 345 346 348 357 349 348 346 346 346 346 346 345
322 321 320 320 319 318 317 318 319 320 322 320 320 326 326 325 324 322 325 328 330 334 335 337 338 339 339 345 347 347 347 348 348 347 346 347 350 351 348 348 346 346 347 346 345
322 321 321 320 320 318 317 321 328 328 326 327 327 323 324 324 324 325 326 328 330 332 336 336 339 341 339 341 343 341 343 348 348 345 345 349 348 351 350 349 348 346 347 346 346
322 322 321 320 320 317 319 327 328 326 327 328 329 327 324 324 325 325 325 328 330 331 334 336 339 340 341 340 339 340 345 347 346 347 345 347 350 345 351 350 350 349 346 347 346
321 323 321 320 318 324 324 324 326 325 327 327 327 327 326 324 325 326 325 327 330 331 332 334 336 339 339 340 338 339 343 347 347 346 346 348 357 349 346 348 349 350 348 346 347
319 323 322 320 325 326 326 327 325 326 329 329 329 327 326 325 326 325 326 327 329 331 331 332 334 336 339 340 338 338 343 344 344 345 349 350 354 347 345 349 351 349 350 348 347
319 323 322 322 320 323 326 325 325 327 335 330 328 326 326 326 327 325 326 326 328 330 331 331 331 334 335 338 339 337 339 341 343 344 347 351 357 353 347 351 350 350 349 349 348
319 322 323 324 324 324 324 323 326 330 330 329 328 328 327 326 326 327 326 327 327 329 330 331 331 332 332 335 338 338 339 340 342 345 356 348 349 353 354 346 349 349 349 348 349
319 322 322 323 327 327 324 325 329 331 329 329 329 328 326 327 326 327 327 327 326 326 328 330 330 331 332 333 336 338 340 342 345 356 359 350 347 351 347 345 344 348 348 349 348
320 322 323 323 324 325 324 327 332 330 328 330 330 330 329 328 327 326 328 327 327 327 328 328 328 330 330 333 336 338 340 341 348 350 356 348 352 348 344 344 343 344 345 346 347
321 324 328 324 321 323 324 327 329 331 330 329 330 329 330 329 328 327 327 328 328 327 327 328 329 332 331 330 334 337 340 340 338 339 343 355 347 345 343 345 343 345 347 346 346
322 324 327 327 326 324 325 325 328 329 329 329 330 330 330 330 329 328 327 328 328 329 329 328 329 332 332 330 332 334 337 339 339 343 344 348 348 351 348 346 345 347 347 348 348
324 330 328 328 326 325 326 325 327 328 328 328 329 330 331 332 331 329 328 329 329 329 330 329 328 330 332 332 332 334 333 335 337 342 344 343 348 347 344 346 344 346 347 348 349
327 331 329 328 326 325 326 325 326 328 328 327 328 329 331 331 332 330 328 329 329 329 328 329 328 328 330 333 333 333 334 334 338 343 342 342 343 342 342 343 339 345 347 349 350
328 330 330 327 326 326 327 327 327 328 327 327 326 327 328 330 332 332 332 330 329 328 328 328 328 327 329 330 332 333 333 335 336 337 341 345 349 339 343 342 340 349 350 350 351
328 331 329 328 325 327 330 330 328 327 326 325 326 327 329 330 332 333 334 332 329 328 325 327 328 328 327 330 331 331 332 333 334 340 338 338 341 341 342 349 344 349 351 351 352
327 330 333 338 327 326 327 329 329 328 328 327 326 328 329 331 332 332 332 332 331 330 328 327 327 328 328 329 329 330 331 331 333 335 339 340 341 340 338 344 344 348 351 353 353
329 330 330 331 333 334 326 329 331 331 330 330 328 329 329 330 332 334 336 335 332 334 331 329 329 328 328 329 328 328 330 331 332 333 335 336 337 337 337 335 343 349 351 352 354
329 329 329 328 329 330 332 332 332 331 332 332 331 333 329 333 333 337 336 335 339 340 338 337 330 328 329 329 329 329 329 330 330 332 332 334 335 336 335 335 335 343 350 353 354
Wind_Speed
6 6 7 8 9 10 12 13 14 15 16 17 17 16 17 17 12 9 15 8 9 10 11 8 11 11 13 17 8 23 8 7 6 6 5 8 7 4 9 11 12 6 26 27 28
7 7 8 8 9 10 11 12 13 14 15 16 16 15 16 17 15 16 13 15 15 13 13 9 15 13 20 18 11 1 4 12 11 11 6 18 7 4 4 9 12 22 25 26 26
9 9 9 9 10 10 11 12 12 13 13 14 14 14 13 15 16 10 17 14 14 12 12 16 16 17 8 9 12 8 7 9 11 8 9 19 5 17 8 8 22 20 25 25 25
10 10 11 11 11 12 12 12 12 12 12 13 13 13 11 10 4 2 7 12 14 12 12 13 20 21 3 6 10 7 28 7 5 5 4 13 20 12 20 2 23 20 23 25 24
11 11 12 12 13 13 13 13 13 12 12 12 12 12 8 9 19 8 10 13 14 12 13 14 22 20 6 22 15 2 8 4 4 3 6 1 13 3 11 8 18 17 20 23 23
12 12 12 13 13 14 14 14 13 13 12 11 11 10 8 15 5 4 3 11 14 14 13 17 18 13 13 12 5 11 6 2 3 4 3 2 9 6 13 8 15 16 18 20 22
13 13 14 14 14 15 15 14 13 12 11 10 9 10 11 20 6 6 9 11 14 16 16 15 10 13 18 8 15 38 7 26 7 6 2 3 4 11 12 10 15 15 18 20 20
14 15 15 16 16 16 15 14 12 11 10 9 8 7 11 4 16 16 12 14 13 16 16 14 11 15 22 20 12 15 18 5 7 6 7 5 4 13 14 13 15 17 17 18 19
15 15 15 16 17 17 16 13 11 10 10 8 5 6 15 8 13 15 16 17 17 17 16 14 12 18 24 13 9 8 15 7 5 4 2 8 7 14 14 14 14 19 18 18 18
16 15 15 16 17 17 14 11 11 12 10 9 10 9 20 14 11 14 14 17 18 19 19 18 18 15 15 10 3 13 10 3 5 9 4 9 6 14 14 11 18 16 21 18 19
17 15 15 15 15 16 10 9 8 2 10 16 5 13 3 8 4 10 14 15 19 19 17 19 14 17 15 11 13 14 3 9 12 6 5 10 3 15 16 12 15 17 20 21 20
18 16 15 14 14 8 6 5 6 10 13 19 24 20 18 6 9 17 15 18 20 17 18 17 18 20 19 1 5 16 8 2 8 12 7 4 7 24 12 14 15 15 21 21 21
19 17 15 12 9 4 7 10 8 12 10 19 25 27 22 17 16 15 21 22 18 19 18 18 20 23 13 14 8 17 11 9 8 13 7 4 9 20 26 22 15 18 17 23 24
20 17 15 11 6 7 7 4 8 10 6 13 14 14 19 20 20 22 21 19 18 20 20 18 20 20 13 17 7 19 7 11 10 8 4 20 6 11 18 24 13 19 20 20 23
20 17 13 14 10 7 7 9 9 6 6 12 12 7 12 17 5 22 19 20 21 19 15 17 18 17 18 21 6 17 11 7 15 11 4 8 5 5 12 26 18 19 25 21 23
20 18 15 9 11 7 11 9 8 6 10 9 10 10 15 21 22 13 21 16 20 20 19 19 23 16 19 23 12 18 11 16 18 16 6 10 8 4 7 15 15 19 23 23 25
20 17 17 12 6 4 8 8 6 9 5 8 9 12 15 15 18 16 16 17 16 13 18 19 19 18 17 18 18 15 14 11 15 5 5 13 2 11 20 22 27 11 21 24 23
21 16 14 13 9 8 7 9 9 13 20 4 5 6 14 16 16 20 15 15 19 21 13 16 15 21 17 18 17 17 16 11 7 5 14 10 2 7 24 24 13 13 9 8 18
21 11 12 4 8 8 10 10 13 16 9 9 8 10 12 13 15 18 20 18 19 19 20 14 18 13 20 21 14 19 18 14 19 19 7 4 5 5 23 19 26 13 10 7 8
21 14 14 11 8 8 9 16 19 17 4 9 10 19 14 16 16 16 19 17 19 20 19 21 16 15 13 16 16 19 18 13 10 13 14 10 7 10 20 8 24 17 12 12 12
14 7 10 9 8 12 11 15 18 21 4 9 16 19 11 16 15 16 16 18 15 19 18 17 17 18 14 10 15 12 15 18 15 1 5 7 9 13 13 16 10 15 18 15 16
11 7 9 10 11 15 12 18 23 17 3 9 11 13 13 16 16 7 19 16 15 9 15 17 10 15 19 12 15 18 16 18 11 12 9 8 8 13 16 15 6 15 16 19 18
8 17 8 11 10 12 19 20 22 8 11 15 12 14 15 15 13 12 14 12 8 7 9 14 11 13 18 15 14 15 18 14 16 17 16 5 5 19 7 8 1 19 17 17 18
7 5 14 12 19 18 18 13 14 15 13 20 13 15 14 11 13 11 14 9 7 5 3 10 15 13 14 14 14 19 19 17 20 16 16 5 5 12 7 6 7 17 20 18 18
7 7 6 6 12 15 18 17 10 13 12 11 13 15 15 12 15 15 17 19 12 11 10 12 17 17 19 20 19 15 15 19 20 20 19 8 6 10 3 10 11 20 20 20 20
8 14 16 21 23 16 10 13 14 12 11 12 12 14 17 17 17 13 14 14 13 11 13 15 16 16 18 20 20 19 17 17 19 20 21 19 14 15 24 20 15 22 23 20 22
13 12 12 13 14 11 11 10 12 12 16 8 15 13 16 9 10 16 12 25 4 2 5 7 13 15 17 19 20 17 17 19 16 18 19 17 15 10 3 5 9 16 24 26 25
Wind_Direction
360 347 338 327 317 311 305 303 299 297 297 299 303 305 307 307 299 274 267 261 245 274 274 274 269 265 264 266 111 99 162 223 182 176 237 130 106 80 25 91 70 35 138 146 147
357 348 338 330 323 318 313 310 306 302 299 298 299 302 305 306 299 276 252 248 257 258 270 255 288 305 281 326 342 196 183 41 119 185 223 120 102 153 111 117 107 101 124 145 151
353 345 337 329 324 319 316 314 311 308 305 303 301 301 304 307 310 256 222 236 234 245 269 272 300 283 300 352 319 292 13 38 67 16 3 76 301 112 244 96 134 135 143 154 158
351 344 337 329 324 319 316 314 312 311 310 308 305 302 299 302 314 175 222 223 222 238 263 276 278 277 289 180 268 70 300 10 356 20 290 140 87 324 118 296 144 139 151 159 164
350 342 335 329 322 318 315 312 311 309 311 310 308 306 307 262 262 241 285 205 213 232 244 264 287 305 269 109 250 5 273 158 129 293 4 42 93 344 93 111 117 133 153 166 168
347 341 334 328 322 316 311 309 309 307 310 311 309 306 300 268 271 268 211 204 205 225 243 253 271 332 295 317 85 209 291 360 114 185 166 36 120 156 99 122 118 141 157 169 176
343 339 333 328 323 317 310 308 306 305 307 307 306 304 272 239 253 243 232 214 221 229 241 254 302 304 295 334 12 8 5 24 177 192 158 78 266 135 107 126 137 156 163 170 181
339 335 331 328 324 318 313 309 305 302 300 300 299 295 259 209 242 256 229 223 226 233 248 279 300 283 278 48 33 30 304 131 208 196 134 182 245 118 130 144 159 160 169 171 182
335 333 328 326 324 319 315 308 301 292 287 287 280 263 256 259 241 235 225 227 227 237 243 258 275 272 277 84 59 185 270 206 133 196 249 204 355 141 150 157 166 163 169 177 183
333 330 325 323 324 321 316 306 289 275 280 264 244 267 243 242 234 219 218 221 231 222 234 243 250 256 254 136 228 243 224 140 249 173 220 286 180 148 160 182 158 181 170 181 180
334 329 323 322 324 324 323 318 303 232 225 237 237 235 117 228 224 213 211 217 231 246 226 228 247 248 255 226 220 281 44 21 338 128 264 316 245 163 162 191 168 173 177 179 185
335 330 323 322 325 325 323 301 8 322 295 258 248 243 254 232 262 225 216 221 217 237 222 236 231 258 276 128 325 285 96 16 252 269 241 220 20 359 161 188 196 188 176 182 191
336 331 323 322 328 347 320 293 308 328 283 279 234 229 231 230 243 238 205 214 223 227 240 233 242 240 277 287 269 255 347 176 226 243 114 48 355 349 333 313 205 186 189 183 187
335 331 328 322 320 294 286 308 319 323 281 247 183 225 218 216 237 233 209 218 229 235 228 248 243 266 235 253 244 279 183 297 287 262 269 50 358 322 318 314 206 211 193 195 180
333 326 326 319 307 288 331 311 306 295 281 125 154 144 188 195 281 202 218 207 237 230 242 246 238 251 259 268 228 267 301 323 289 297 70 81 153 246 252 264 272 203 196 200 183
328 322 316 319 295 321 301 305 293 239 248 163 148 198 215 203 246 177 206 221 229 249 256 251 270 247 248 261 246 272 298 286 269 246 30 325 260 238 233 223 248 231 207 197 188
321 314 300 278 214 274 301 283 231 244 122 186 194 194 206 204 221 232 189 209 221 226 240 251 241 259 264 256 262 237 255 275 276 77 211 231 196 330 212 237 235 185 195 192 190
319 309 294 266 243 281 280 243 243 232 246 75 352 210 213 221 202 228 203 221 219 244 251 225 241 222 231 247 253 238 245 264 264 171 234 89 117 231 237 232 96 144 171 190 188
322 317 286 279 243 224 239 230 227 264 340 338 262 237 250 243 232 208 214 228 226 212 249 258 251 242 206 230 235 256 262 251 270 301 313 147 234 224 347 28 348 127 140 167 186
325 311 255 214 204 197 231 251 255 290 20 331 277 276 242 205 227 227 222 223 241 230 219 260 282 289 209 205 225 239 270 268 247 266 285 170 170 177 230 116 203 210 172 156 165
322 277 144 188 198 223 235 242 252 258 209 263 270 296 283 289 210 221 243 233 220 240 232 235 256 273 260 189 235 219 241 263 281 85 286 284 219 159 140 202 211 141 149 160 163
287 269 183 182 209 228 238 244 267 295 221 239 276 297 312 309 309 227 243 225 229 214 260 231 245 253 263 231 210 252 234 234 249 237 225 260 34 178 179 209 145 146 144 158 163
287 266 194 203 233 236 226 245 261 284 264 263 241 254 263 279 284 286 285 270 266 262 225 257 219 256 266 246 207 218 246 254 248 267 279 129 264 278 157 112 98 126 138 153 158
289 262 203 210 245 282 287 256 244 232 254 279 268 266 276 277 272 282 275 269 231 282 22 297 267 228 247 252 252 209 227 246 255 249 259 224 227 225 39 132 126 129 146 162 164
246 251 2 271 216 233 266 285 285 248 196 239 254 272 270 263 254 251 248 282 168 215 236 248 251 257 259 267 277 271 224 230 240 260 265 274 141 114 34 108 211 161 164 171 177
292 343 334 299 296 301 251 257 283 267 260 255 225 267 231 245 270 282 308 282 273 203 206 226 245 257 260 266 266 269 269 231 221 243 262 273 279 169 156 214 185 163 166 180 182
337 332 292 292 292 285 263 278 278 269 290 287 288 298 250 285 294 325 306 301 15 108 33 316 248 234 246 244 251 260 251 262 259 227 239 256 262 253 299 266 279 157 169 179 186